EW2173 Weather Reports


time (UTC)temp
C
wind
direction
speed
KPH
gust
KPH
rain 1hr
cm
rain 24hr
cm
rain mn
cm
humidity
%
barometer
mb
20260906100033 23 86 3.2 6.4 0.00 0.00 0.00 1 1013.0
20260906094551 23 39 0.0 6.4 0.00 0.00 0.00 1 1012.9
20260906093038 23 20 0.0 6.4 0.00 0.00 0.00 1 1013.1
20260906091515 23 256 3.2 4.8 0.00 0.00 0.00 1 1013.1
20260906090018 23 34 0.0 6.4 0.00 0.00 0.00 1 1013.1
20260906084506 23 27 3.2 9.7 0.00 0.00 0.00 1 1012.8
20260906083001 23 264 6.4 12.9 0.00 0.00 0.00 1 1012.8
20260906081557 23 34 1.6 9.7 0.00 0.00 0.00 1 1012.7
20260906080056 24 75 3.2 11.3 0.00 0.00 0.00 1 1012.8
20260906074556 24 63 1.6 11.3 0.00 0.00 0.00 1 1012.8
20260906073047 24 76 1.6 4.8 0.00 0.00 0.00 1 1012.5
20260906071543 24 129 0.0 6.4 0.00 0.00 0.00 1 1012.3
20260906070039 24 129 3.2 8.0 0.00 0.00 0.00 1 1012.3
20260906064534 24 127 4.8 8.0 0.00 0.00 0.00 1 1012.6
20260906063033 24 120 6.4 9.7 0.00 0.00 0.00 1 1012.8
20260906061528 24 91 3.2 6.4 0.00 0.00 0.00 1 1013.0
20260906060020 25 51 0.0 8.0 0.00 0.00 0.00 1 1013.0
20260906054518 25 37 1.6 11.3 0.00 0.00 0.00 1 1013.1
20260906053010 25 77 6.4 11.3 0.00 0.00 0.00 1 1013.1
20260906051506 25 90 3.2 4.8 0.00 0.00 0.00 5 1013.2
20260906050001 25 86 1.6 8.0 0.00 0.00 0.00 8 1013.2
20260906044602 25 78 1.6 8.0 0.00 0.00 0.00 7 1013.3
20260906043052 25 46 0.0 4.8 0.00 0.00 0.00 1 1013.3
20260906041548 25 51 0.0 3.2 0.00 0.00 0.00 5 1013.5
20260906040045 25 101 0.0 6.4 0.00 0.00 0.00 1 1013.4
20260906034539 25 99 3.2 6.4 0.00 0.00 0.00 13 1013.4
20260906033045 25 101 0.0 4.8 0.00 0.00 0.00 9 1013.3
20260906031537 26 101 3.2 6.4 0.00 0.00 0.00 19 1013.3
20260906030025 26 80 0.0 6.4 0.00 0.00 0.00 21 1013.3
20260906024539 26 58 3.2 8.0 0.00 0.00 0.00 22 1013.4
20260906023022 26 30 1.6 11.3 0.00 0.00 0.00 39 1013.1
20260906021512 26 252 8.0 12.9 0.00 0.00 0.00 43 1012.7
20260906020007 26 329 4.8 8.0 0.00 0.00 0.00 42 1012.7
20260906014508 26 288 3.2 8.0 0.00 0.00 0.00 47 1012.6
20260906013102 26 57 4.8 9.7 0.00 0.00 0.00 48 1012.4
20260906011603 27 39 6.4 9.7 0.00 0.00 0.00 56 1012.2
20260906010052 27 33 1.6 6.4 0.00 0.00 0.00 62 1012.2
20260906004546 27 245 3.2 11.3 0.00 0.00 0.00 66 1012.3
20260906003040 27 13 0.0 11.3 0.00 0.00 0.00 67 1012.2
20260906001534 28 53 3.2 14.5 0.00 0.00 0.00 66 1011.9
20260906000030 28 128 8.0 17.7 0.00 0.00 0.00 65 1011.9
20260905234526 29 97 0.0 0.0 0.00 0.00 0.00 66 1011.8
20260905233025 30 123 0.0 0.0 0.00 0.00 0.00 64 1011.9
20260905231517 30 107 0.0 0.0 0.00 0.00 0.00 65 1011.8
20260905230012 31 101 0.0 0.0 0.00 0.00 0.00 66 1011.7
20260905224508 31 95 0.0 0.0 0.00 0.00 0.00 64 1011.6
20260905223002 31 41 0.0 0.0 0.00 0.00 0.00 65 1011.7
20260905221612 31 20 0.0 0.0 0.00 0.00 0.00 65 1011.5
20260905220054 31 7 0.0 8.0 0.00 0.00 0.00 65 1011.5
20260905214549 33 20 8.0 14.5 0.00 0.00 0.00 60 1011.7
20260905213057 35 73 0.0 8.0 0.00 0.00 0.00 55 1011.8
20260905211545 33 103 0.0 8.0 0.00 0.00 0.00 58 1011.8
20260905210048 34 89 3.2 11.3 0.00 0.00 0.00 57 1011.9
20260905204538 33 136 0.0 9.7 0.00 0.00 0.00 61 1011.9
20260905203027 32 104 9.7 14.5 0.00 0.00 0.00 63 1012.2
20260905201522 32 68 0.0 0.0 0.00 0.00 0.00 64 1012.4
20260905200020 32 96 0.0 0.0 0.00 0.00 0.00 62 1012.6
20260905194513 33 69 0.0 0.0 0.00 0.00 0.00 59 1012.7
20260905193008 33 93 0.0 0.0 0.00 0.00 0.00 59 1012.8
20260905191504 32 77 0.0 0.0 0.00 0.00 0.00 60 1013.3
20260905184556 31 265 0.0 1.6 0.00 0.00 0.00 66 1013.7
20260905183048 30 159 1.6 8.0 0.00 0.00 0.00 50 1013.7
20260905181603 28 123 0.0 9.7 0.00 0.00 0.00 35 1014.1
20260905180041 28 123 0.0 9.7 0.00 0.00 0.00 20 1014.3
20260905174535 27 113 1.6 6.4 0.00 0.00 0.00 25 1014.5
20260905173031 27 108 3.2 9.7 0.00 0.00 0.00 30 1014.8
20260905171526 28 128 0.0 16.1 0.00 0.00 0.00 51 1014.6
20260905170022 29 112 4.8 14.5 0.00 0.00 0.00 65 1014.6
20260905164517 31 154 3.2 17.7 0.00 0.00 0.00 64 1014.9
20260905163011 32 137 0.0 0.0 0.00 0.00 0.00 59 1015.0
20260905161509 33 116 0.0 0.0 0.00 0.00 0.00 57 1014.8
20260905160003 32 58 0.0 0.0 0.00 0.00 0.00 63 1014.6
20260905154617 31 32 0.0 0.0 0.00 0.00 0.00 65 1014.8
20260905153054 30 89 0.0 0.0 0.00 0.00 0.00 65 1014.9
20260905151559 29 341 0.0 0.0 0.00 0.00 0.00 59 1015.0
20260905150045 28 93 0.0 0.0 0.00 0.00 0.00 56 1015.1
20260905144540 27 81 0.0 0.0 0.00 0.00 0.00 38 1015.3
20260905143039 27 84 0.0 0.0 0.00 0.00 0.00 38 1015.4
20260905141535 27 79 0.0 0.0 0.00 0.00 0.00 27 1015.4
20260905140025 26 53 0.0 0.0 0.00 0.00 0.00 27 1015.3
20260905134521 26 71 0.0 0.0 0.00 0.00 0.00 28 1015.5
20260905133017 26 41 0.0 0.0 0.00 0.00 0.00 7 1015.6
20260905131514 25 13 0.0 0.0 0.00 0.00 0.00 1 1015.7
20260905130007 25 12 0.0 0.0 0.00 0.00 0.00 1 1015.8
20260905124505 25 120 0.0 0.0 0.00 0.00 0.00 1 1015.9
20260905123100 25 122 0.0 0.0 0.00 0.00 0.00 1 1015.8
20260905121555 25 122 0.0 0.0 0.00 0.00 0.00 1 1015.6
20260905120051 -17 0.0 0.0 0.00 0.00 0.00 1015.1
20260905114546 -17 0.0 0.0 0.00 0.00 0.00 1015.0
20260905113042 -17 0.0 0.0 0.00 0.00 0.00 1014.8
20260905111543 -17 0.0 0.0 0.00 0.00 0.00 1014.9
20260905110032 -17 0.0 0.0 0.00 0.00 0.00 1014.6
20260905104528 -17 0.0 0.0 0.00 0.00 0.00 1014.4
20260905103024 -17 0.0 0.0 0.00 0.00 0.00 1014.4
20260905101523 -17 0.0 0.0 0.00 0.00 0.00 1014.3